Location: Lewisville
(33.0462°N, 96.9942°W)
Time: 06:06:32
(UTC-05:00)

Hubble Space Telescope - Pass Details

Date: 25 March 2020
Orbit: 536 x 540 km, 28.5° (Epoch: 05 July)

Event Time Altitude Azimuth Distance (km) Brightness Sun altitude
Exits shadow 05:52:36 42° 201° (SSW) 771 1.2 -19.8°
Maximum altitude 05:53:02 44° 182° (S) 750 1.3 -19.7°
Drops below altitude 10° 05:56:58 10° 110° (ESE) 1,785 4.2 -18.9°
Sets 05:59:18 0° 104° (ESE) 2,675 5.4 -18.4°
